Other Public Products
Issued by NWS Grand Forks, ND

Home | Current Version | Previous Version | Text Only | Print | Product List | Glossary Off
Versions: 1 2 3 4 5 6 7 8 9 10 11 12 13 14 15 16 17 18 19 20 21 22 23 24 25 26 27 28 29 30 31 32 33 34 35 36 37 38 39 40 41 42 43 44 45 46 47 48 49 50

000
FPUS83 KFGF 301410
OPUFGF
PRAIRIE TO PINES WEATHER ROUNDUP
NATIONAL WEATHER SERVICE EASTERN NORTH DAKOTA/GRAND FORKS ND
900 AM CDT WED JUL 30 2014

 **SATELLITE DATA USED TO AUGMENT SKY COVER AT AUTOMATED STATIONS**
 *****  WEATHER ACROSS EASTERN NORTH DAKOTA  *****

CITY           SKY/WX    TMP DP  RH WIND       PRES   REMARKS
GRAND FORKS    MOSUNNY   66  57  72 NW3       30.12S
GRAND FORKS AF SUNNY     68  62  80 NW6       30.13F
GRAND CITY NWS   N/A     64 N/A N/A MISG        N/A
BUXTON         NOT AVBL
DEVILS LAKE    SUNNY     64  55  72 W3        30.15S
FARGO          SUNNY     67  56  67 N5        30.13S
WAHPETON ARPT  SUNNY     63  54  72 CALM      30.15S
$$

 *****  WEATHER ACROSS CENTRAL AND WESTERN NORTH DAKOTA  *****

CITY           SKY/WX    TMP DP  RH WIND       PRES   REMARKS
JAMESTOWN      SUNNY     66  55  67 NW5       30.16S
BISMARCK       SUNNY     64  56  75 E5        30.17F
MINOT          SUNNY     65  59  81 SW3       30.16S
MINOT AFB      PTSUNNY   65  65  99 W2        30.16S
GARRISON         N/A     66  62  87 CALM      30.18R
WILLISTON      SUNNY     63  56  78 CALM      30.20R
DICKINSON      SUNNY     64  58  80 CALM      30.19R
HETTINGER      SUNNY     63  55  75 N5        30.19S
$$

 *****  OTHER OBSERVATIONS NORTHEAST NORTH DAKOTA  *****

CITY           SKY/WX    TMP DP  RH WIND       PRES   REMARKS
WALHALLA         N/A     66  63  88 W3          N/A
LANGDON        FAIR      64  55  72 NW5       30.15S
CAVALIER       FAIR      66  57  72 W5        30.12S
GRAFTON        FAIR      66  55  68 NW5       30.12S
CANDO          FAIR      64  59  82 NW5       30.16S
FORT TOTTEN    NOT AVBL
ROLLA          FAIR      68  59  73 W7        30.18R
RUGBY          FAIR      61  61 100 W3        30.17R
 ***** THE ABOVE OBSERVATIONS ARE NON NWS ARE NOT QUALITY
        CONTROLLED AND MAY MIS-REPORT RAIN FOR SNOW...
$$

 *****  OTHER OBSERVATIONS SOUTHEAST NORTH DAKOTA *****

CITY           SKY/WX    TMP DP  RH WIND       PRES   REMARKS
COOPERSTOWN    NOT AVBL
VALLEY CITY    FAIR      64  61  88 NW6       30.16S
OAKES          NOT AVBL
GWINNER        SUNNY     64  61  88 CALM      30.16S
SHEYENNE NWR     N/A     64  56  76 NW2       29.95
BUFFALO        NOT AVBL
WYNDMERE       NOT AVBL
 ***** THE ABOVE OBSERVATIONS ARE NON NWS ARE NOT QUALITY
       CONTROLLED AND MAY MIS-REPORT RAIN FOR SNOW...
$$

  *****  WEATHER ACROSS NORTHERN MINNESOTA  *****

CITY           SKY/WX    TMP DP  RH WIND       PRES   REMARKS
FLAG ISLAND    SUNNY     64  57  77 NW14      30.06S
WARROAD        SUNNY     64  59  82 W7        30.09S
ROSEAU         SUNNY     64  57  77 NW7       30.10S
HALLOCK        SUNNY     63  57  82 CALM      30.11F
THF RVR FALLS  SUNNY     64  55  72 NW7       30.13R
HALSTAD          N/A     68  57  68 NW3         N/A
FOSSTON        SUNNY     61  57  88 W3        30.13S
BAUDETTE       SUNNY     67  58  72 NW7       30.08S
WASKISH        SUNNY     66  57  72 CALM      30.08S
CROOKSTON      SUNNY     64  57  77 NW5       30.13S
$$
  *****  WEATHER ACROSS CENTRAL AND WEST MINNESOTA  *****

CITY           SKY/WX    TMP DP  RH WIND       PRES   REMARKS
BEMIDJI        SUNNY     63  57  81 NW8       30.11S
PARK RAPIDS    SUNNY     64  58  80 NW6       30.12S
WADENA         SUNNY     63  57  82 NW5       30.12F
DETROIT LAKES  SUNNY     63  55  77 N5        30.15S
MOORHEAD       SUNNY     64  61  88 CALM      30.14S
FERGUS FALLS   SUNNY     64  55  72 NW3       30.14F
ELBOW LAKE     FAIR      63  57  83 NW6       30.14S
MORRIS MN      SUNNY     64  59  82 N3        30.14S
STAPLES        SUNNY     63  55  77 NW5       30.12S
WHEATON        SUNNY     63  57  82 CALM      30.16S
$$
  *****  WEATHER ELSEWHERE ACROSS MINNESOTA  *****

CITY           SKY/WX    TMP DP  RH WIND       PRES   REMARKS
DULUTH         SUNNY     63  57  81 W5        30.07F
INTRNTL FALLS  MOSUNNY   62  60  93 NW7       30.04F
ELY            SUNNY     57  57 100 SW3       30.06F
CLOQUET        SUNNY     61  55  82 CALM      30.08S
BRAINERD       SUNNY     65  55  70 NW8       30.11S
HIBBING        SUNNY     58  55  90 CALM      30.07F
ALEXANDRIA     SUNNY     67  57  70 N8        30.15S
SAINT CLOUD    SUNNY     68  57  68 NW5       30.10S
MINNEAPOLIS    SUNNY     69  58  67 N5        30.09S
$$

  *****  WEATHER ACROSS SOUTH DAKOTA  *****

CITY           SKY/WX    TMP DP  RH WIND       PRES   REMARKS
SIOUX FALLS    MOSUNNY   65  57  75 NE3       30.17S
BROOKINGS      NOT AVBL
WATERTOWN      SUNNY     64  56  75 NW6       30.17S
HURON          SUNNY     65  57  75 CALM      30.16S
SISSETON         N/A     65  60  84 CALM      30.14S
ABERDEEN       SUNNY     65  54  67 N5        30.17R
MITCHELL       SUNNY     66  58  75 CALM      30.17S
PIERRE         PTSUNNY   65  58  78 SE5       30.15S
MOBRIDGE       PTSUNNY   68  60  75 S5        30.13F
RAPID CITY     SUNNY     69  57  65 NW5       30.21R
$$

  *****  SOME WEATHER IN NEARBY STATES *****

CITY           SKY/WX    TMP DP  RH WIND       PRES   REMARKS
GLASGOW MT     SUNNY     67  54  63 E12       30.18S
GREAT FALLS MT SUNNY     74  48  39 S3        30.18R
CHEYENNE WY    LGT RAIN  57  54  89 CALM      30.35S
SCOTTSBLUFF NE CLOUDY    66  59  78 N5        30.28R
OMAHA NE       MOSUNNY   65  58  78 NW5       30.16R
DES MOINES IA  MOSUNNY   68  57  68 NW5       30.12R
DAVENPORT IA   SUNNY     66  60  81 NW3       30.08S
CHICAGO IL     MOSUNNY   69  54  58 NW6       30.03S
EAU CLAIRE WI  FOG       58  58 100 CALM      30.09S VSB 1
LA CROSSE WI   SUNNY     65  58  78 N8        30.08R
$$

  *****  SOME NATIONAL WEATHER *****

CITY           SKY/WX    TMP DP  RH WIND       PRES   REMARKS
LA GUARDIA NY  MOSUNNY   72  53  51 E8        30.03S
RALEIGH NC     PTSUNNY   71  62  73 NE5       30.09R
ATLANTA GA     MOSUNNY   71  54  54 NE10      30.07R
NEW ORLEANS LA MOSUNNY   80  63  55 NE13      30.07S
OKLAHOMA CITY  HVY RAIN  67  64  90 S9        30.09F VSB 1
ALBUQUERQUE NM MOSUNNY   69  59  70 E3        30.23R
SALT LAKE CITY PTSUNNY   68  62  81 CALM      30.18R
LOS ANGELES CA PTSUNNY   69  63  81 W5        29.96R
BOISE ID       PTSUNNY   75  52  44 N6        30.12R
SEATTLE WA     MOSUNNY   58  57  97 S3        30.16R
$$

*** WEATHER ACROSS MANITOBA...SASKATCHEWAN AND ONTARIO ***
                ***ONTARIO***

CITY           SKY/WX    TMP DP  RH WIND       PRES   REMARKS
GERALDTON      LGT RAIN  55  54  94 W6        29.95R
THUNDER BAY    CLOUDY    59  52  77 W6        30.00F
SIOUX LOOKOUT  PTSUNNY   64  61  88 NW6       30.01F
TORONTO        PTSUNNY   66  55  68 W6        29.97R
BIG TROUT LK   SUNNY     57  43  58 N10       29.99S
PICKLE LAKE    CLOUDY    63  46  55 N8        29.98S
DRYDEN         SUNNY     63  59  88 NW5       30.02S
KENORA         PTSUNNY   64  55  72 NW9       30.07S
$$
                *** MANITOBA***

CITY           SKY/WX    TMP DP  RH WIND       PRES   REMARKS
BRANDON        MOSUNNY   68  61  77 NW7       30.15S
DAUPHIN        SUNNY     68  61  77 W9        30.11F
ISLAND LAKE    MOSUNNY   66  57  72 N2        30.08R
PILOT MOUND      N/A     63  57  82 NW5         N/A
THE PAS        MOSUNNY   68  59  73 NW3       30.09R
THOMPSON       SUNNY     68  61  77 CALM      30.08S
WINNIPEG       SUNNY     66  59  77 W8        30.10F
LYNN LAKE      SUNNY     73  54  49 N5        30.09S
CHURCHILL      MOSUNNY   59  54  82 VRB2      30.11S
GILLAM         PTSUNNY   64  54  68 SE5       30.08
$$
                ***SASKATCHEWAN***

CITY           SKY/WX    TMP DP  RH WIND       PRES   REMARKS
ESTEVAN        MOSUNNY   64  59  82 N2        30.20S
KINDERSLEY     MOSUNNY   66  59  77 S9        30.09F
LLOYDMINSTER   NOT AVBL
PRINCE ALBERT  PTSUNNY   68  59  73 VRB2      30.15S
REGINA         MOSUNNY   64  55  72 S6        30.20S


USA.gov is the U.S. government's official web portal to all federal, state and local government web resources and services.